KORSAT-3

导读

KORSAT-3是韩国计划于2025年4月22日发射的卫星,延续了韩国KORSAT系列卫星的发展脉络。该卫星项目承载着韩国提升太空服务能力的战略目标,若发射成功入轨后,将在原有卫星体系基础上,进一步强化韩国在通信服务等领域的覆盖能力,助力韩国完善空间基础设施布局,推动本国航天技术应用与发展。

基本信息
目录编号:
63630
目录名称:
KORSAT-3
国际标识:
2025-081A
轨道中心:
EARTH
卫星名称:
KORSAT-3
卫星全名:
KORSAT-3
卫星状态:
在轨 (已飞行419 天)
发射日期:
2025-04-22 UTC
国别 :
韩国 (KR)
星等 :
--
轨道信息
数据来源 国际轨道数据 AOE轨道数据
星历时间 2026-06-15T06:34:26+0800
8小时前
查看轨道信息
2026-06-15T11:00:00+0800
4小时前
查看轨道信息
半长轴 6948.779km 6948.81km
偏心率 0.0007484 0.0007376
轨道倾角 45.412° 45.413°
近地点辐角 204.144° 203.518°
升交点赤经 347.535° 346.583°
平近点角 155.909° 72.586°
近地点 565.441km 565.547km
远地点 575.843km 575.799km
周期 96.078分钟 96.078分钟
每日圈数 14.987876 14.987775
详细信息
使用方式:
暂无
2D轨道图
3D轨道图
轨道高度分析图
轨道倾角分析图
轨道综合分析图
查看轨道综合分析图